DECAYED
Showing default

ZHEDA PIXING 3A, 45795 (Decayed)

Orbit data source: Space-Track

ZHEDA PIXING 3A, 45795 was a payload satellite owned by Zhejiang (CN) in LEO that was launched on Wed, 17 Jun 2020 UTC via a CHANG ZHENG 2D launch vehicle from the Jiuquan Satellite Launch Center, China (JSC). Payload-class satellites include a variety of spacecraft equipped with specific instruments for various scientific and technological missions. These include communications satellites like Starlink; space stations such as the ISS; scientific satellites like the Hubble; Earth observation satellites from companies like Planet Labs, Umbra, and HawkEye 360; GPS; miniature CubeSats for education and research; and military/defense satellites.

Not visible in the next 10 days
Identifier
45795, 2020-039B
Orbit
Decayed
Last TLE update
8 months ago
Origin
Manufacturer
Zhejiang
Mission
Decayed Amateur Technology
Bus & Motor
Unknown
Mass
12 kg wet, 12 kg dry
Launch date (UTC)
2020-06-17 (5 years ago)
Launch vehicle
CHANG ZHENG 2D
Launch site
Jiuquan Satellite Launch Center, China (JSC)
Object type
Payload
Rocket body
Debris
Shape & HBR
Box + 1 Truss, Unknown HBR
Radar Cross Section
0.094 m², Small (<0.1 m²)

Expand to show TLE details & history

TLE from 8 months ago
0 ZHEDA PIXING 3A
1 45795U 20039B   24299.68164617  .14036921  26590-5  12355-3 0  9991
2 45795  97.4538  89.0895 0012144 259.3589 100.6349 16.51430924244154
Epoch: 2024-10-25T16:21Z
TLE epoch observation values (Epoch: 2024-10-25T16:21:34.229Z)
Latitude
0.00002°
Longitude
169.14947°
Altitude
140.304 km
Speed
7.821 km/s
True Right ascension
05h 56m 21s
True Declination
0° 00' 00"
Sunlit
Object was in full shadow at epoch
Visualization orbit readout
Visualization observer readout
Orbital elements
Apogee altitude
140.272 km
Perigee altitude
124.459 km
Semi-major axis
6,510.502 km
Eccentricity
0.00121
Inclination
97.4538°
RAAN
89.0895°
Arg. of periapsis
259.3589°
True anomaly
Unknown
Mean anomaly
100.6349°
Eccentric anomaly
Unknown
Mean motion
4.13163 °/min
Orbital period
87.13 mins
BSTAR
0.00012355
Loading maneuver chart data...
Loading SW <> Apogee altitude chart data...
Loading historical data...
Loading historical data...
Loading historical data...
Loading historical data...
Loading historical data...
Loading historical data...
Loading historical data...

ZHEDA PIXING 3A Visibility

Observer location: undefined°, undefined°

This satellite is decayed
Span
Click to sort rows by Start time (UTC) header in descending order
Start Az.
Max El. time (UTC)
Max El. Az.
Max El.
End time (UTC)
End Az.
|